Theta_e
314 314 314 314 314 313 313 313 312 311 309 321 321 323 317 309 306 315 318 318 316 310 304 306 304 302 303 305 305 306 305 304 304 304 305 303 305 304 303 303 301 301 300 300 300 300 297 299 298 300 300 299 300 302 304 305 306 307 305 305 306 308 303 299 299 302 304 306 307 308 308 307 306 307 307 306 304 306 305 304 307 303 303 301 303 304 306
314 314 314 314 314 313 313 313 312 312 310 317 321 321 313 309 308 310 316 319 317 308 301 300 301 302 303 302 301 304 304 304 303 303 304 304 303 303 302 303 306 303 304 302 299 302 295 299 299 299 302 299 302 302 303 304 305 304 303 303 306 300 304 301 297 297 299 300 303 304 306 306 304 304 307 307 307 307 307 307 309 303 304 304 302 300 305
314 314 314 314 314 313 313 313 312 312 312 314 320 319 313 311 311 310 311 316 314 305 306 305 302 302 302 302 300 301 301 303 304 303 302 305 305 303 301 303 304 303 305 303 303 303 301 298 302 301 300 299 302 301 302 303 304 305 305 307 308 303 303 302 295 292 290 290 291 294 297 300 304 305 303 305 305 305 305 301 305 298 305 306 300 303 310
314 314 314 314 313 313 313 313 312 312 312 310 322 321 316 308 306 307 308 311 310 309 310 308 305 302 303 301 301 302 300 301 303 304 302 305 304 305 304 304 305 303 302 301 301 301 303 300 300 301 299 298 299 300 302 301 302 305 309 307 306 303 303 304 302 298 297 300 301 304 306 303 300 301 303 302 304 305 306 306 303 300 305 304 310 309 310
314 314 314 314 313 313 313 312 312 312 312 310 317 323 314 311 304 306 303 308 307 305 307 305 305 303 305 300 301 299 300 300 301 304 300 303 304 303 304 303 302 302 302 300 300 301 301 303 302 301 300 301 300 300 301 301 302 306 306 304 305 303 299 301 301 301 301 300 300 303 304 302 302 301 300 302 302 304 304 302 301 310 303 297 312 315 311
314 314 315 314 314 313 312 312 312 312 311 309 321 315 312 305 305 309 310 304 300 304 302 306 303 304 304 300 303 300 300 301 299 301 303 304 305 303 302 304 304 303 302 302 299 301 301 302 300 301 301 299 300 300 301 300 301 304 302 304 304 302 298 300 300 299 300 301 301 302 302 302 301 301 300 301 302 303 303 304 304 308 304 302 313 315 313
314 314 315 315 314 314 313 313 312 311 309 312 325 315 309 309 308 307 309 305 304 304 303 305 304 303 304 302 302 300 299 298 301 302 301 303 302 305 299 300 301 302 303 303 301 302 297 299 303 302 301 301 300 299 299 301 302 302 301 302 305 303 298 299 300 298 299 299 300 300 300 299 300 300 300 300 301 302 302 302 304 307 310 311 311 315 313
314 314 315 315 315 314 314 313 312 311 309 322 320 313 311 311 311 305 309 308 306 306 306 305 304 301 304 302 300 301 300 299 301 303 303 299 301 304 301 301 303 303 304 305 301 302 303 302 300 302 300 298 303 301 302 300 302 302 299 301 303 301 298 298 298 298 297 298 298 299 298 298 298 299 299 300 300 301 301 302 303 307 307 309 311 310 312
314 314 315 315 315 314 314 313 312 311 310 322 314 312 315 313 318 318 311 305 304 308 307 306 305 304 305 303 301 301 300 300 302 302 305 303 301 302 300 302 302 303 303 302 302 303 304 303 302 303 303 300 302 302 302 302 302 300 299 300 300 299 299 297 298 295 295 296 296 297 297 297 297 298 298 299 299 298 300 301 304 304 304 307 309 308 308
313 314 315 315 314 314 314 314 313 310 311 326 318 312 320 320 316 317 313 304 304 305 305 306 306 300 303 304 303 302 301 302 303 300 303 305 305 305 303 303 303 302 302 301 302 304 304 304 305 305 305 305 305 305 304 304 304 302 301 300 299 302 300 295 295 293 295 297 296 296 296 296 293 295 298 299 300 303 303 307 307 309 306 303 303 306 312
313 314 314 315 315 315 315 314 314 310 320 325 323 314 316 316 316 316 312 306 305 306 306 303 304 302 304 304 302 303 302 303 305 302 299 303 303 306 306 306 304 302 301 303 306 307 307 307 306 307 306 305 304 305 304 304 304 304 304 300 300 301 300 297 299 292 295 295 296 296 293 288 291 301 303 302 299 301 301 303 304 309 309 309 314 313 315
313 314 314 314 315 315 315 315 314 312 312 325 328 320 320 323 324 320 311 306 300 305 306 303 303 303 304 304 304 302 302 304 304 306 301 302 303 305 305 304 307 301 304 309 308 307 307 307 307 307 305 304 304 304 305 304 304 307 304 303 300 298 298 299 300 294 294 296 295 291 287 289 301 304 304 304 305 304 303 308 308 308 310 312 313 313 313
313 313 314 314 315 315 315 315 314 313 312 320 327 320 324 329 325 318 312 308 303 306 303 302 307 305 304 305 304 304 304 305 305 305 304 303 303 305 307 306 304 304 309 307 307 307 304 302 304 304 302 304 304 305 304 304 303 304 306 306 305 301 297 300 297 297 299 294 291 284 287 300 302 303 304 304 307 306 306 306 308 309 309 312 313 313 313
313 313 314 314 314 314 315 315 314 314 312 314 324 323 323 326 321 319 313 309 303 305 306 303 304 304 305 305 306 304 305 305 306 307 304 305 305 304 306 308 307 310 310 309 307 306 302 299 298 298 298 300 301 300 304 304 304 303 304 305 305 304 304 301 295 299 292 294 293 291 300 298 299 298 299 301 301 301 302 299 304 307 310 310 311 311 312
313 313 313 314 314 314 314 314 314 313 313 311 325 325 324 326 326 320 323 315 305 304 307 304 305 305 306 305 306 304 305 304 304 305 307 308 306 308 308 308 311 311 309 307 305 304 301 301 297 295 296 294 290 293 302 299 304 304 304 305 305 306 302 304 298 296 297 294 292 294 292 289 296 303 308 310 309 308 308 304 303 309 311 310 312 311 311
313 313 313 313 314 314 314 314 314 314 313 311 327 327 326 329 330 328 322 313 311 302 305 309 309 307 307 305 307 306 306 304 307 305 303 304 308 307 309 311 311 311 310 306 307 304 301 296 290 290 290 293 297 296 293 300 298 302 304 304 305 305 306 305 300 297 296 294 290 290 287 293 303 304 305 306 306 306 304 300 295 309 311 310 311 309 310
312 312 313 313 313 314 314 314 314 314 314 311 320 325 325 329 328 326 322 317 312 307 310 310 309 309 308 305 304 305 307 306 306 303 303 304 306 307 309 310 312 309 308 306 305 301 298 296 297 292 295 299 292 291 299 295 296 298 302 302 303 302 299 299 296 296 297 295 291 289 295 295 304 305 306 305 309 304 303 291 292 309 310 310 310 309 310
312 312 313 313 313 314 314 314 314 314 313 311 319 325 325 328 329 330 323 315 310 308 309 310 309 307 308 310 308 309 308 307 306 306 305 307 308 306 308 306 306 309 309 303 304 300 298 293 292 290 290 302 301 293 286 295 294 296 297 298 297 297 298 299 295 295 296 294 294 296 298 305 308 306 306 307 306 304 294 289 302 311 310 310 311 310 310
312 312 312 312 313 313 313 314 314 313 314 311 319 328 325 326 329 329 324 316 311 307 310 312 311 310 314 314 311 311 311 310 311 304 305 304 306 309 309 309 309 304 307 301 303 300 297 297 301 294 293 297 297 289 296 290 291 299 301 296 297 298 298 299 298 294 294 295 293 293 298 305 308 309 308 308 302 292 292 306 313 311 310 312 310 309 310
312 312 312 312 312 313 313 313 313 313 313 312 315 323 324 326 328 327 320 312 313 311 314 313 311 309 311 309 308 307 309 307 308 306 305 301 310 308 305 302 306 306 306 306 300 303 299 294 296 300 291 292 295 301 292 294 299 298 299 301 296 297 295 293 294 297 296 296 293 290 286 302 310 308 306 306 298 301 308 311 312 312 310 309 310 309 310
312 312 312 312 312 312 312 312 312 313 313 313 312 322 322 329 327 328 327 320 315 309 312 317 315 313 313 311 312 312 311 309 309 307 309 309 313 308 296 299 305 304 302 303 298 298 301 296 300 296 299 297 299 297 291 292 297 302 302 300 299 301 295 295 296 300 292 292 290 290 301 306 311 305 300 306 306 311 311 310 308 309 309 309 309 309 310
312 311 312 311 312 312 312 312 312 312 312 313 311 322 322 327 329 329 326 325 316 312 313 317 317 315 316 317 317 317 316 314 315 315 311 310 313 307 308 309 308 306 308 308 304 302 303 302 303 299 296 298 303 295 299 292 290 300 304 303 291 304 300 303 296 303 298 295 298 304 308 309 309 307 306 307 313 314 313 312 311 310 309 311 309 309 310
311 311 311 311 312 311 312 312 312 312 311 312 315 324 321 323 326 329 328 320 323 322 321 318 319 317 317 318 320 320 320 320 318 317 316 310 309 310 307 307 307 311 311 311 304 305 305 303 300 303 300 302 295 297 300 298 293 300 295 305 300 307 307 310 305 301 306 306 307 310 309 308 309 310 310 309 311 311 312 311 308 310 310 311 310 310 310
311 311 311 311 311 311 311 311 311 311 311 312 313 320 323 324 324 325 322 322 318 313 317 320 313 313 314 314 317 319 319 318 318 320 321 318 307 307 311 312 312 311 311 313 315 307 307 306 305 306 298 303 303 297 293 293 296 300 300 299 303 305 307 304 298 302 298 293 306 305 306 307 307 307 310 312 311 311 312 311 310 309 310 311 312 311 311
311 311 311 311 311 311 311 311 311 311 311 311 314 321 322 324 328 324 318 311 312 310 305 312 311 316 317 319 319 317 318 321 321 320 318 318 315 308 308 314 315 312 312 313 316 310 309 303 304 303 298 305 304 296 303 298 297 304 296 300 300 301 309 303 302 301 298 299 305 306 308 309 309 309 308 308 310 311 312 313 313 312 312 311 311 312 311
311 311 310 311 311 311 310 311 311 310 310 310 310 320 322 323 325 326 321 322 321 317 309 306 311 316 319 314 315 319 322 320 319 318 317 317 316 316 314 316 316 318 315 314 313 309 307 306 306 305 300 303 309 300 300 303 302 306 300 301 304 306 307 298 303 300 302 304 306 306 308 309 309 309 310 310 310 310 312 312 312 311 310 311 311 311 310
311 311 310 310 310 310 310 310 310 310 310 310 315 321 321 323 324 321 320 320 313 309 310 307 312 316 318 315 318 319 319 319 318 318 318 317 316 317 316 315 314 316 313 312 312 309 308 305 305 303 306 305 307 306 306 304 302 302 301 305 308 304 300 304 303 298 298 299 303 308 301 301 306 309 311 311 312 311 311 311 311 310 310 311 310 311 312
311 310 310 310 310 310 310 310 310 310 310 310 314 320 323 321 323 322 323 322 318 310 310 308 308 314 318 314 316 318 319 318 318 317 317 316 317 316 315 315 316 312 312 311 306 306 305 303 303 309 307 308 305 303 308 307 305 302 302 304 308 304 306 304 300 299 298 304 307 308 308 307 308 309 310 311 311 311 310 310 310 310 311 311 311 310 310
311 310 309 309 309 309 309 309 310 310 310 310 320 321 321 322 323 321 321 323 321 317 315 314 316 314 309 312 317 317 319 319 318 317 316 317 316 317 316 315 314 313 313 313 311 310 308 308 311 307 305 311 306 301 302 299 300 298 302 307 309 312 313 309 307 306 306 308 309 311 309 306 309 311 312 312 312 311 310 311 311 310 311 311 310 310 309
310 310 309 309 309 309 309 309 309 310 310 317 320 320 316 317 322 323 320 321 322 319 312 309 305 312 318 316 314 316 317 318 318 318 317 317 316 317 316 316 315 316 314 313 311 306 308 308 309 310 310 312 305 305 300 300 296 299 309 309 310 311 312 312 311 308 306 311 311 311 312 312 313 313 313 314 313 312 310 310 310 310 311 312 311 310 311
310 309 309 308 309 308 308 308 309 310 310 318 318 314 311 307 317 322 315 320 324 318 314 313 309 314 312 318 318 315 317 317 318 318 317 317 318 318 318 318 318 317 312 311 311 310 308 304 306 308 310 312 307 303 302 300 297 298 304 308 310 308 309 309 309 309 308 309 311 312 312 311 313 313 313 313 313 313 311 311 311 312 311 311 311 311 310
309 309 308 308 308 308 308 309 309 309 316 319 317 316 315 314 319 319 317 318 323 318 313 308 308 308 310 312 315 319 317 317 317 316 316 316 316 317 318 317 313 316 313 310 311 309 307 310 308 308 308 309 306 304 302 300 297 300 307 308 311 309 309 309 309 309 310 311 310 309 308 309 311 309 309 314 314 314 313 312 312 312 311 311 313 312 311
309 308 308 308 308 308 308 309 310 311 318 315 310 309 310 308 309 314 316 322 320 316 316 310 305 307 304 311 315 317 316 315 313 314 314 317 313 316 314 319 317 316 317 311 309 304 309 307 309 306 311 311 304 303 302 299 301 307 308 309 311 311 309 309 309 310 310 312 313 308 306 308 310 313 313 314 312 312 312 312 312 312 311 311 310 310 310
308 308 307 308 308 308 309 310 310 309 310 313 318 318 319 310 314 309 319 323 318 320 317 311 308 306 306 314 308 314 316 310 310 314 309 318 319 315 312 314 316 310 315 309 310 309 308 308 305 305 307 305 307 302 297 301 307 307 307 308 310 310 311 311 310 309 310 311 314 314 314 314 315 315 313 312 312 311 312 313 311 310 309 309 308 308 309
308 307 308 308 309 310 310 310 316 318 319 319 320 323 319 309 310 313 318 320 311 311 311 311 312 306 305 306 303 309 320 311 308 315 306 312 318 312 314 309 311 306 309 314 309 308 305 306 308 303 301 306 303 297 300 303 306 305 304 304 307 308 309 308 309 310 311 313 312 312 313 314 313 311 311 311 310 310 310 309 310 309 307 307 307 308 308
308 308 309 310 310 310 316 313 317 320 318 317 318 316 314 314 314 321 323 323 318 311 308 310 309 307 306 301 299 309 316 309 312 312 314 313 312 316 313 310 303 307 312 307 304 305 303 308 304 298 304 297 295 300 302 305 306 304 305 305 307 308 309 309 310 311 312 312 310 308 308 311 311 310 311 310 309 309 309 309 309 308 307 307 307 307 307
309 309 310 310 313 317 318 315 321 320 318 320 318 316 314 317 322 322 320 318 320 321 312 311 307 306 308 307 309 313 311 302 311 308 312 308 306 311 309 308 302 307 306 306 304 302 306 310 304 300 299 296 300 307 308 307 307 308 307 308 310 311 311 311 312 311 310 310 308 310 311 310 309 309 309 308 307 308 307 306 306 306 305 305 306 306 306
310 310 314 316 315 314 312 315 318 318 316 314 315 316 316 315 312 312 313 311 316 315 314 312 306 310 314 307 305 314 310 307 312 305 305 310 306 306 310 306 304 305 298 301 303 310 306 304 303 298 300 305 306 308 307 309 310 311 310 310 311 311 311 311 311 310 308 306 306 308 308 308 308 308 307 306 306 306 306 307 306 306 306 306 305 305 304
309 315 315 317 316 311 314 316 320 316 319 320 320 313 311 314 311 308 310 311 312 307 312 309 307 311 309 307 308 317 313 307 306 307 302 311 305 299 306 298 307 304 298 299 302 310 300 301 301 300 297 303 302 303 307 309 310 309 309 310 310 310 311 311 312 310 308 307 307 309 308 306 306 305 306 306 307 306 306 305 304 304 304 303 303 304 304
315 314 315 315 312 316 320 319 316 318 319 314 316 311 306 313 305 301 313 303 303 310 310 304 310 312 313 309 308 308 316 310 304 303 303 305 311 300 305 303 304 300 293 294 299 306 298 293 298 294 294 300 301 304 308 307 306 305 308 307 307 309 311 311 312 313 312 311 309 308 309 309 308 307 306 305 305 303 303 304 304 304 303 304 305 305 304
316 318 317 312 317 319 321 323 322 319 315 311 311 311 308 300 310 311 307 305 303 305 313 309 312 310 312 312 311 306 317 316 316 315 310 302 313 307 301 298 307 298 294 294 301 301 299 294 297 294 294 300 301 304 306 305 305 305 307 307 307 308 308 310 311 312 312 310 310 309 308 308 308 308 307 307 305 304 304 303 303 304 304 304 304 305 306
318 318 320 322 321 321 320 317 316 313 312 313 304 296 302 306 311 309 310 300 302 306 311 311 305 306 308 310 310 310 312 319 314 311 306 300 310 303 299 301 303 295 289 300 305 301 299 292 292 292 298 303 304 305 305 305 305 304 305 306 306 305 307 308 308 308 310 309 308 308 308 308 308 307 307 307 306 306 305 304 305 305 305 305 305 305 306
307 312 320 317 315 314 316 306 313 311 297 296 296 292 302 296 302 302 303 309 314 310 311 316 313 313 314 315 311 317 313 316 309 308 306 302 309 306 302 298 298 290 296 306 301 296 292 290 288 293 300 302 305 304 304 304 305 304 305 306 306 305 306 307 306 308 308 309 309 307 307 307 307 307 307 307 307 307 307 307 307 306 306 306 305 306 306
319 318 316 317 311 313 312 293 311 304 297 299 295 290 298 299 301 304 303 307 310 309 312 309 308 307 303 312 309 307 312 314 312 310 306 309 304 300 299 292 294 302 305 299 297 289 292 296 296 301 301 302 303 305 305 305 305 305 305 306 306 305 304 306 308 307 308 307 308 308 308 307 307 306 307 307 306 306 305 306 307 306 305 306 306 305 305
314 312 308 307 302 307 299 290 309 300 293 298 300 301 301 298 301 304 305 312 309 307 311 310 309 310 307 313 311 311 308 303 313 303 300 304 300 301 297 295 300 300 295 292 292 294 292 291 301 301 300 301 301 302 304 303 303 303 303 303 304 304 304 303 305 309 309 306 306 304 304 305 306 306 306 306 306 306 306 305 306 305 305 304 304 303 304
311 304 302 296 291 297 298 294 297 293 304 306 306 309 304 310 306 306 312 313 311 311 310 310 310 310 307 311 306 305 308 308 304 303 305 304 297 293 301 303 300 293 292 290 287 286 288 294 297 297 299 300 300 301 302 302 303 303 303 301 302 303 305 305 306 308 309 308 307 305 305 305 305 305 305 306 307 306 307 306 307 306 305 304 303 303 303
311 313 305 301 295 298 307 296 300 304 308 308 309 309 308 310 312 312 314 313 312 313 311 314 310 308 305 306 307 305 306 307 302 305 305 298 295 296 300 295 289 290 286 284 285 288 293 295 298 300 300 301 301 301 301 302 302 302 301 301 302 302 303 304 305 307 308 310 309 308 306 304 305 306 305 305 307 307 307 306 307 306 305 303 303 303 303
300 308 308 295 293 298 297 304 310 310 312 312 313 314 314 315 312 310 314 314 314 313 312 310 308 308 305 313 308 301 301 305 299 301 303 298 299 294 290 291 290 291 291 288 288 293 295 297 298 298 300 301 301 300 300 300 301 301 301 300 301 301 302 303 302 305 308 308 307 306 305 305 306 305 305 307 307 306 306 306 306 305 305 304 303 303 303
314 303 299 298 304 306 306 309 309 305 309 314 314 313 313 311 309 312 314 314 314 313 314 309 309 306 302 303 301 300 297 302 294 293 298 296 291 287 288 285 288 285 291 292 293 296 297 298 299 299 300 300 301 300 301 302 303 303 302 302 303 302 303 303 304 304 305 307 309 309 307 306 306 305 305 305 305 305 306 306 305 305 305 304 303 303 302
302 301 308 302 304 307 310 311 307 305 310 312 311 309 310 310 309 312 313 312 314 312 313 313 311 303 301 302 294 297 295 300 297 294 294 291 292 293 291 285 288 289 291 295 296 297 298 299 300 299 300 300 302 303 304 302 302 302 302 304 305 304 302 304 304 304 306 306 307 307 309 308 307 306 304 303 305 305 305 305 304 304 304 304 303 303 302
313 306 305 311 307 308 309 304 305 305 306 308 309 309 311 309 310 311 314 313 313 312 310 303 302 300 296 294 292 289 292 299 295 294 292 292 295 292 290 288 291 293 295 297 298 298 298 299 299 299 300 300 301 303 305 304 302 302 303 304 304 303 302 303 304 304 304 305 308 307 308 310 309 308 305 305 305 304 303 303 304 304 304 304 304 303 302
301 299 304 310 312 312 312 313 312 310 311 312 312 315 312 310 310 314 317 312 312 306 302 304 302 297 293 291 296 297 299 296 293 294 291 294 297 292 291 292 295 296 297 296 296 298 299 300 301 301 302 303 302 304 306 305 305 304 305 304 304 303 302 303 306 305 304 306 307 307 306 305 307 307 306 305 304 303 301 301 303 304 304 304 303 304 304
Wind_Speed
20 21 21 21 21 22 22 23 23 21 22 10 8 9 7 3 5 5 6 3 9 10 2 1 2 3 4 4 4 1 2 5 3 3 5 1 3 3 4 3 4 7 5 2 2 2 4 5 3 4 6 6 7 8 9 11 8 8 1 6 4 5 6 6 2 7 8 7 4 4 6 6 7 7 4 5 12 12 12 11 6 10 13 12 7 5 6
20 20 19 20 21 21 22 22 22 19 14 6 9 8 4 2 4 4 5 6 5 9 1 3 4 4 4 4 6 5 7 7 6 5 5 6 3 5 4 3 6 6 8 8 6 1 3 4 2 2 3 3 6 7 9 11 6 7 7 6 9 6 7 7 5 7 6 4 6 8 5 5 9 12 5 7 7 8 6 8 2 8 12 13 10 6 7
18 19 18 20 20 21 22 22 21 20 15 7 4 6 6 2 3 2 3 2 5 3 4 1 4 4 4 3 5 6 4 6 8 7 7 5 6 1 4 5 2 3 3 5 4 6 7 3 1 3 3 4 4 5 8 10 7 8 9 9 8 6 2 5 8 10 10 10 11 12 11 12 9 2 0 6 6 5 7 10 6 5 5 8 3 9 9
19 20 18 19 20 21 22 22 21 19 16 10 4 6 7 4 3 3 3 3 3 4 4 5 2 5 5 4 4 2 5 5 4 6 7 7 4 6 2 2 1 5 6 6 5 6 2 5 4 6 4 3 2 4 6 7 8 9 10 11 8 4 2 1 3 2 4 6 6 4 9 12 10 8 3 2 4 3 9 7 8 10 8 6 8 14 13
19 19 19 19 21 22 22 22 22 20 15 10 4 8 6 3 4 4 3 2 4 4 3 4 5 3 4 1 3 4 2 4 6 7 2 4 4 5 6 0 1 2 2 4 5 3 5 5 7 3 5 3 3 2 4 4 7 10 9 4 6 4 6 5 2 3 3 4 6 5 6 8 6 7 7 2 0 1 8 9 9 6 7 6 6 14 15
18 20 19 19 20 22 22 23 24 22 17 9 4 5 4 2 4 1 5 5 3 3 5 4 5 4 1 5 4 4 3 3 5 5 5 3 3 2 1 2 4 1 3 3 3 3 5 3 5 3 3 5 4 5 2 3 2 8 3 4 4 5 6 4 6 4 1 2 5 5 3 6 3 1 1 2 2 3 5 1 4 4 7 5 11 11 13
18 19 19 19 20 21 23 24 24 24 25 11 5 6 4 4 3 4 4 3 5 6 6 6 6 6 6 4 4 4 4 5 7 7 6 5 5 4 5 4 3 3 1 2 5 2 4 6 3 1 2 2 2 3 5 2 2 2 3 3 2 4 2 5 4 1 3 2 2 1 2 2 3 3 2 0 2 3 1 2 5 3 8 14 13 11 12
17 18 18 19 19 21 22 24 25 25 27 16 4 6 7 4 5 5 3 4 3 1 2 1 1 6 3 1 5 3 2 7 5 6 4 5 6 3 8 7 7 7 6 5 4 6 8 5 5 3 1 4 3 3 4 3 4 2 2 4 3 5 2 2 4 5 4 2 4 6 3 2 6 4 3 2 3 2 2 2 4 5 8 7 11 15 11
15 17 18 18 18 19 21 22 24 27 23 4 5 4 7 5 4 5 4 2 4 2 1 2 2 3 3 3 3 3 3 7 7 9 8 7 6 5 8 6 7 7 8 7 7 6 6 5 6 3 4 5 4 6 5 4 1 1 1 2 1 6 1 2 4 6 5 4 3 3 5 4 7 6 7 6 4 7 5 6 5 6 8 9 10 12 9
15 16 17 17 16 18 19 20 23 26 26 6 6 5 3 1 1 4 6 0 1 3 2 1 6 4 5 5 3 2 6 5 1 6 5 6 7 6 4 4 4 6 6 7 6 5 4 4 4 4 2 2 0 1 2 2 4 1 1 1 3 4 1 4 5 7 4 6 2 1 3 7 9 11 10 6 4 3 3 5 3 4 2 9 10 6 10
13 14 16 16 16 17 18 19 21 23 15 8 8 7 7 7 5 4 5 4 3 2 3 4 5 7 5 4 5 2 5 3 3 6 5 2 4 4 4 4 4 5 5 4 3 4 3 3 0 2 2 1 2 0 3 1 1 4 3 3 2 2 5 4 3 7 3 5 2 3 7 10 3 9 9 3 4 5 5 5 4 4 4 4 9 11 11
13 13 14 16 15 16 17 17 19 19 15 8 8 4 6 7 6 6 6 5 3 2 3 7 5 4 2 3 2 3 4 3 4 2 6 4 5 2 2 3 6 4 4 1 1 1 2 2 3 2 1 1 2 1 2 2 2 3 1 5 1 4 4 5 2 7 4 5 4 7 8 4 9 5 6 5 5 2 2 5 5 3 4 9 9 10 9
11 12 13 15 15 15 15 16 17 18 18 11 8 6 7 6 6 6 5 7 3 0 2 5 2 3 4 3 4 5 5 4 4 5 6 4 2 2 6 5 4 6 2 2 1 5 5 1 1 2 1 1 1 2 0 1 1 1 4 2 5 2 6 2 5 6 1 4 6 6 3 8 6 6 6 7 2 2 2 4 2 1 3 5 9 9 10
10 11 12 13 15 15 16 16 15 17 18 14 7 6 6 8 7 7 5 6 3 2 5 5 4 4 2 4 3 5 5 4 4 1 5 2 4 3 3 4 6 1 0 1 1 3 3 4 5 5 5 5 4 6 4 2 1 1 0 2 3 5 5 4 5 5 6 6 8 4 8 8 7 5 4 3 3 4 5 4 8 8 4 5 7 6 7
9 10 11 12 13 14 15 15 15 15 17 18 7 5 6 7 7 6 6 6 1 3 3 3 5 5 2 3 3 4 4 4 5 5 3 1 1 3 5 4 1 1 2 6 4 3 4 5 5 6 4 5 6 3 3 5 5 3 2 2 3 2 6 4 6 5 6 5 7 7 6 7 8 8 8 4 5 6 5 5 4 7 6 3 6 8 7
8 9 10 11 12 13 14 15 15 15 17 19 7 4 5 8 7 6 6 6 5 2 5 5 4 4 3 3 3 6 1 4 2 4 5 3 2 3 3 2 1 2 3 3 3 6 4 4 1 3 3 1 4 1 2 1 4 6 4 1 3 4 4 6 7 4 6 6 6 5 5 2 9 8 6 7 3 1 3 4 6 8 7 5 3 8 6
7 8 9 10 11 11 13 14 14 14 14 15 7 6 5 8 7 7 7 5 6 3 4 3 2 2 2 4 4 6 5 2 3 4 3 6 6 4 4 2 1 2 2 7 3 5 5 4 4 3 3 3 1 2 2 4 4 4 5 5 5 5 6 6 8 7 6 7 5 6 4 5 7 8 6 5 3 3 5 6 5 12 7 7 1 2 11
6 7 7 8 9 10 11 12 14 14 14 15 8 5 4 6 7 8 6 4 6 2 5 3 4 4 1 5 2 5 1 1 3 1 3 5 4 4 5 2 6 5 2 6 4 4 4 3 2 2 2 5 2 1 2 3 5 3 4 5 6 7 7 6 8 7 5 5 7 7 5 9 10 8 7 6 3 3 7 6 7 1 8 5 1 2 2
5 6 6 8 8 9 10 11 12 13 13 14 9 6 2 6 7 8 6 5 4 1 6 2 2 6 4 2 5 2 4 7 6 5 3 5 4 4 2 3 5 2 6 5 4 4 5 2 2 2 3 3 2 1 1 1 4 1 1 4 5 5 5 6 8 8 7 6 7 7 4 7 8 5 6 5 3 6 4 8 6 7 4 5 3 3 3
5 4 5 6 7 8 9 10 10 11 12 12 9 4 3 4 5 7 7 7 5 7 2 4 1 4 3 5 3 4 3 5 3 6 4 1 4 5 4 6 5 4 4 3 6 4 5 4 0 2 4 2 3 3 2 7 7 7 5 4 6 3 6 6 7 6 6 6 7 4 6 5 5 10 6 3 7 3 7 6 2 3 6 6 5 1 3
4 4 5 5 5 7 7 8 9 10 11 11 10 5 2 4 3 4 5 5 7 6 3 2 2 4 3 4 5 6 6 6 2 4 2 2 3 4 4 3 3 4 1 4 5 2 4 5 2 3 2 4 4 3 2 2 6 8 8 5 7 2 6 5 6 5 6 7 7 2 4 10 9 5 2 7 1 6 2 3 7 7 2 4 2 7 5
4 3 4 5 5 6 6 7 8 9 10 11 12 5 5 2 1 2 4 4 6 6 6 5 4 5 2 3 4 4 5 5 4 5 6 2 5 6 4 2 3 4 3 3 5 4 5 5 2 5 3 4 4 3 1 4 5 5 9 4 6 6 8 4 4 3 6 3 4 4 3 6 5 1 3 2 6 4 3 2 4 4 3 4 5 5 3
3 2 4 4 5 5 5 6 7 8 9 12 11 4 5 4 3 4 5 6 6 8 6 6 5 5 5 5 4 4 4 4 4 4 4 7 3 4 5 4 4 2 2 2 6 6 6 4 5 5 6 6 3 5 7 7 3 5 4 9 7 3 5 5 5 7 6 8 5 1 1 4 4 4 0 1 3 4 3 3 4 4 4 4 7 5 6
3 2 3 4 4 4 5 5 6 7 8 9 9 5 4 4 5 6 6 7 6 6 5 4 5 4 3 5 5 5 5 6 6 5 3 3 6 3 4 3 1 2 3 2 3 6 5 6 6 2 7 4 3 7 5 6 8 6 6 7 8 8 6 6 6 4 2 3 4 8 7 6 7 6 3 4 3 4 4 4 5 3 3 3 4 4 3
3 2 3 3 4 4 4 5 5 6 7 9 10 5 5 5 1 4 6 6 3 5 6 4 3 7 4 4 2 4 5 2 4 6 7 6 7 8 4 5 6 6 4 2 1 4 4 7 5 5 8 3 4 6 5 7 5 4 6 7 5 8 11 9 9 9 8 6 3 3 3 4 4 2 5 7 7 6 5 4 3 2 3 3 3 3 5
4 2 2 3 3 4 4 4 5 5 6 8 10 5 3 4 4 4 5 6 6 5 6 3 4 2 3 4 6 1 4 3 5 7 8 9 8 8 8 3 4 2 5 3 4 5 5 7 6 6 7 5 2 7 7 5 6 1 6 6 2 4 6 6 4 8 9 11 11 9 7 7 7 7 7 7 7 7 8 8 6 5 5 6 5 4 4
3 2 2 3 3 3 4 4 4 5 4 7 5 2 3 3 2 3 5 5 6 4 6 3 3 4 4 3 3 2 4 6 7 6 7 9 9 8 8 7 7 5 5 6 5 6 6 7 8 9 7 6 3 7 7 6 6 7 7 8 5 5 9 7 6 8 9 8 5 4 9 8 7 8 8 8 7 6 6 6 6 5 5 4 5 5 5
3 1 2 2 3 3 3 4 4 5 4 7 8 4 2 3 1 3 3 4 5 5 6 6 6 3 3 5 2 3 3 3 4 6 6 7 8 7 8 8 7 7 6 6 8 8 8 9 11 8 6 7 7 8 7 7 6 9 9 8 6 8 9 8 10 9 7 3 4 3 4 6 6 6 4 4 5 6 7 8 8 7 6 5 5 5 6
2 1 0 2 2 3 3 4 4 4 5 9 5 4 3 2 2 1 2 3 4 6 7 8 8 8 4 4 4 5 6 3 4 5 5 6 7 7 7 7 7 6 8 8 7 8 8 9 6 5 4 4 3 3 5 9 8 8 9 8 6 5 8 8 11 9 10 10 9 6 6 7 7 7 7 8 6 6 8 8 8 7 7 6 6 6 7
3 1 1 1 2 1 3 3 4 6 6 6 5 5 4 5 2 1 3 3 4 5 7 7 6 2 3 5 7 4 4 6 5 5 5 5 5 5 6 6 7 7 7 8 6 9 8 8 5 3 3 6 6 2 4 3 5 10 2 3 5 6 4 3 6 5 7 7 9 10 8 7 7 7 8 9 9 8 8 8 8 8 8 7 7 7 6
2 1 1 3 2 3 3 3 4 6 9 6 5 6 6 3 3 1 2 5 2 5 5 5 7 5 5 3 2 3 3 1 4 3 3 2 2 4 5 5 6 6 7 8 8 5 6 8 9 4 2 2 2 4 6 7 9 9 9 6 3 3 6 5 5 10 11 11 11 12 13 12 9 9 10 10 10 9 9 8 8 8 8 8 9 7 6
2 3 1 2 2 2 3 3 3 5 5 5 4 4 4 4 5 5 1 7 2 4 4 6 6 6 3 4 4 2 4 4 3 3 2 1 4 2 5 5 5 4 7 6 3 0 6 8 9 5 4 5 3 6 6 8 11 11 8 6 6 6 6 8 9 10 12 12 13 13 14 15 13 12 9 8 9 10 9 9 9 8 3 1 5 6 4
4 2 2 2 2 3 3 4 5 6 3 10 9 3 4 5 4 5 6 5 4 4 3 4 6 3 2 1 2 6 2 3 4 4 3 2 4 3 5 4 5 4 2 5 5 4 3 6 7 9 1 5 4 5 7 9 10 7 7 7 4 4 7 6 6 8 11 11 11 12 11 10 10 8 5 8 9 8 7 8 9 7 6 5 5 7 6
3 3 2 2 2 3 5 5 7 8 10 6 3 4 5 6 5 5 7 3 4 4 4 4 4 6 3 4 5 1 7 5 2 2 4 6 2 4 4 4 5 6 5 6 2 3 6 5 7 1 3 6 5 6 8 7 3 4 5 7 7 7 7 7 8 10 11 12 12 12 13 11 9 4 3 5 9 10 9 7 7 9 9 8 8 8 9
3 3 3 4 5 5 6 8 4 5 4 2 3 4 6 7 8 2 5 4 4 4 4 4 3 6 6 6 0 3 7 8 4 5 4 1 4 6 1 7 4 7 3 1 7 8 7 3 2 6 7 4 7 7 7 6 5 3 5 10 8 6 7 8 9 9 8 6 9 11 12 11 9 9 6 7 8 7 7 8 8 9 8 8 8 9 9
3 3 5 7 6 7 4 5 5 4 1 2 3 6 8 7 7 5 3 3 4 5 4 1 3 6 4 6 2 3 4 7 2 3 3 2 5 3 5 4 8 1 3 5 6 4 6 3 4 6 1 1 6 6 4 5 4 5 8 6 6 6 8 10 10 11 11 10 7 9 12 11 9 8 7 7 6 7 7 6 7 7 7 8 8 8 7
5 5 5 5 5 4 4 0 2 3 5 6 7 8 8 7 2 3 4 4 5 4 5 4 5 5 4 7 3 1 7 3 2 4 4 4 3 2 5 4 7 2 3 6 7 7 3 4 5 7 7 8 3 2 2 2 3 4 5 5 6 7 7 8 8 10 11 10 11 10 7 7 6 6 6 6 6 7 8 8 6 6 7 8 8 7 7
4 6 4 5 4 5 4 3 2 7 9 11 8 4 4 5 4 3 3 4 3 3 5 5 6 5 1 6 3 2 2 5 5 4 4 3 4 3 0 5 4 2 8 7 0 3 2 4 6 8 8 2 5 4 1 1 2 2 3 5 6 6 7 8 7 7 8 7 6 6 7 6 7 7 6 6 5 4 5 2 1 2 4 6 5 4 5
6 4 6 5 5 3 4 4 5 3 4 3 3 3 3 2 3 3 3 2 2 5 5 5 6 4 3 5 1 6 4 4 5 3 5 4 2 4 1 5 0 3 4 7 2 5 6 4 5 5 8 4 4 3 1 1 2 3 4 5 6 6 6 7 6 6 6 6 5 4 5 5 7 5 4 3 5 4 5 5 5 4 4 3 3 3 4
5 5 3 5 1 6 3 5 3 3 4 4 4 4 3 4 4 1 2 2 3 3 3 4 5 4 3 5 6 2 4 6 6 5 5 5 2 5 3 3 3 3 7 9 3 1 5 3 3 4 8 7 6 6 1 4 5 5 6 8 11 12 7 5 5 3 4 3 3 3 4 5 5 6 5 7 7 6 5 4 3 2 2 2 2 2 5
4 4 4 1 5 3 3 4 4 3 3 4 3 3 2 2 3 2 2 3 3 1 2 2 4 4 4 3 5 4 4 4 1 2 3 5 3 3 5 5 4 5 7 7 3 1 1 5 8 3 6 6 4 4 3 3 3 4 4 6 6 6 9 8 5 4 5 4 3 2 4 4 5 6 9 9 8 6 6 6 6 5 4 3 3 4 4
4 5 5 4 3 3 4 4 4 4 4 2 2 2 2 2 1 3 2 3 1 1 1 0 2 5 1 3 3 3 2 6 4 3 2 3 2 3 5 3 3 3 4 4 2 6 7 5 5 2 4 3 5 2 3 3 3 5 8 9 9 9 8 7 7 8 6 3 2 4 3 5 7 7 7 8 8 9 9 8 6 6 4 3 2 3 3
6 7 3 3 2 3 2 3 3 3 0 1 0 2 3 2 1 3 1 4 1 4 4 7 1 3 1 3 2 4 3 1 3 2 3 2 2 2 3 4 3 5 3 4 5 6 6 6 4 3 1 3 1 2 3 3 5 5 7 7 8 10 10 8 11 5 7 4 4 5 5 8 9 9 8 9 8 8 7 7 6 4 3 1 2 2 2
3 3 4 3 2 1 2 2 2 1 1 2 2 2 5 5 2 2 4 2 0 3 3 1 4 6 0 1 4 3 3 2 3 2 4 2 2 4 2 2 4 5 6 6 6 5 5 4 2 3 3 1 1 3 4 5 5 6 7 7 8 8 9 9 6 8 5 7 5 3 2 4 6 5 6 6 6 7 7 6 4 2 1 1 0 1 2
5 3 2 1 0 1 1 2 3 3 4 4 4 2 5 2 2 2 5 2 3 1 2 4 4 4 4 5 5 1 1 1 3 3 2 2 5 5 5 5 5 5 6 7 5 5 5 4 4 4 2 4 6 7 7 7 8 9 9 11 10 11 9 10 9 7 4 5 4 7 1 3 5 5 5 4 4 5 6 5 4 3 2 1 1 1 2
5 3 3 2 1 2 2 2 1 2 5 3 3 4 2 4 3 2 3 0 4 2 3 2 4 3 6 2 3 2 1 2 3 4 2 3 5 5 3 4 6 8 6 7 6 7 7 6 6 5 6 9 10 9 10 10 10 9 10 10 10 11 11 10 9 8 7 5 4 8 8 6 6 6 6 7 6 6 5 5 4 3 3 2 2 2 2
3 1 1 1 3 3 5 3 5 5 2 2 4 2 1 4 3 3 1 0 4 1 3 1 3 3 5 4 4 1 3 2 4 1 2 5 4 4 2 5 5 6 6 5 5 7 7 7 9 10 11 12 12 11 10 11 10 11 11 11 11 11 11 11 11 10 8 8 8 8 9 7 6 5 6 6 6 6 6 5 5 4 3 3 3 2 2
1 2 1 2 3 3 5 6 5 4 2 3 4 4 3 1 2 4 3 1 3 3 3 4 2 2 4 2 4 6 4 2 5 2 2 5 3 4 2 4 6 5 4 7 8 9 10 11 12 12 12 12 12 12 11 11 12 12 12 13 14 14 11 11 11 11 10 10 10 8 9 8 8 8 8 7 7 6 6 5 5 4 4 4 4 3 2
5 1 1 2 4 4 4 2 2 4 3 2 2 4 3 4 3 4 2 1 2 3 3 4 4 3 4 3 5 5 4 2 3 2 2 4 4 5 6 7 9 7 6 6 9 8 10 11 11 11 12 12 12 12 12 12 11 12 13 13 13 12 12 11 10 9 10 9 8 9 9 10 8 7 8 7 7 6 5 6 5 4 4 5 4 3 2
2 2 3 3 6 6 5 3 5 5 3 2 1 2 3 4 2 3 2 3 2 2 3 3 1 4 3 3 3 4 4 3 4 2 5 6 5 5 5 6 6 8 10 10 9 11 11 11 10 12 13 14 14 13 12 14 12 11 11 11 9 9 12 12 11 10 8 8 11 10 9 9 9 8 8 8 7 7 6 6 6 6 5 5 4 3 2
3 2 4 6 8 5 2 4 4 5 3 0 2 2 2 3 2 2 2 3 2 4 2 3 3 3 3 2 2 2 1 4 6 4 4 6 5 6 6 8 9 10 10 10 10 10 10 10 11 12 14 15 14 14 11 11 10 8 9 8 7 6 8 11 10 8 10 12 9 10 11 9 8 8 8 8 8 8 8 7 7 6 6 5 4 3 2
2 3 5 6 7 7 4 2 3 5 5 5 1 7 6 2 3 0 3 3 3 2 4 3 3 3 1 2 4 4 4 3 3 4 5 5 5 5 6 7 9 9 10 9 9 9 10 11 11 14 13 14 15 12 10 10 9 8 7 6 5 4 7 8 5 4 6 7 8 10 12 10 7 6 7 9 9 8 8 7 7 7 6 5 5 3 3
Wind_Direction
342 341 338 334 334 335 334 336 338 345 343 335 347 328 260 337 13 45 354 338 276 279 80 59 88 48 74 152 99 127 97 15 6 344 323 172 312 106 20 55 162 150 164 205 81 49 82 329 54 63 97 66 18 14 345 343 318 304 23 244 83 313 248 234 49 61 95 129 73 344 313 324 244 211 320 274 225 224 221 223 261 248 214 238 168 119 132
342 342 338 334 334 335 335 335 338 342 5 332 308 293 289 48 348 88 71 282 304 283 359 99 74 89 100 63 94 42 35 9 63 33 31 3 45 34 98 110 354 143 185 192 213 251 233 94 211 145 7 82 9 7 353 343 8 348 23 331 13 277 201 239 214 208 158 154 198 201 196 244 237 225 198 328 317 304 301 316 287 248 239 243 221 160 144
341 342 338 335 336 335 335 336 335 340 348 341 305 303 340 343 172 59 63 288 314 338 28 67 112 122 103 120 108 133 95 34 18 25 51 14 13 217 54 18 118 132 188 161 190 178 258 170 251 48 70 79 6 28 353 357 2 16 3 333 315 301 276 243 226 207 194 187 184 193 178 208 201 359 176 245 293 284 274 240 211 251 226 325 284 98 120
343 342 339 338 336 336 336 336 337 339 346 332 266 289 279 286 275 124 118 354 105 89 351 22 90 131 163 138 69 85 115 110 47 329 85 3 60 24 52 21 105 134 179 175 189 164 186 211 151 193 141 128 100 358 359 10 4 0 326 313 304 307 302 8 11 342 346 22 354 28 243 169 196 171 200 171 229 302 262 296 268 233 233 216 93 143 135
344 343 342 341 338 337 337 337 337 339 344 346 308 281 293 332 346 351 23 194 91 70 9 81 314 62 349 11 331 68 30 98 102 340 62 2 15 60 9 104 238 78 161 137 132 87 118 102 158 130 117 69 84 71 357 29 14 323 301 344 308 269 244 136 171 334 347 11 13 37 341 189 154 168 165 156 171 280 243 238 245 357 322 159 120 138 147
345 345 344 343 340 339 339 339 339 339 341 323 267 295 349 279 72 339 20 317 14 0 75 11 85 73 315 76 285 46 76 59 92 115 48 131 304 280 102 56 35 69 52 132 121 119 102 130 108 109 86 167 144 164 75 38 5 306 344 339 323 316 258 106 256 149 264 330 23 12 45 41 115 11 71 133 83 223 224 145 9 358 280 159 148 144 137
346 346 346 346 343 341 342 341 341 342 334 326 268 303 66 28 85 54 270 282 49 36 49 28 61 60 32 72 17 91 67 83 32 12 84 33 69 343 110 69 82 102 177 303 100 118 198 138 86 74 126 10 166 188 165 125 357 330 1 0 19 288 282 9 313 179 160 155 210 152 348 159 219 213 170 247 249 119 61 86 35 72 108 128 147 137 129
347 347 347 348 345 344 344 343 345 343 338 317 260 13 326 51 336 113 96 65 110 141 211 60 148 95 277 257 37 34 74 87 86 38 14 94 79 88 92 91 82 77 79 76 84 52 17 92 142 90 6 169 285 35 8 38 109 329 34 319 90 299 79 313 287 244 180 166 214 213 223 263 238 180 217 210 212 198 183 16 99 135 156 156 148 146 137
348 348 349 350 348 348 346 347 348 342 345 326 27 42 11 15 9 348 307 121 50 321 227 200 176 140 109 102 101 89 79 75 48 60 29 68 83 70 89 97 101 86 84 77 75 54 55 52 88 128 342 2 86 317 111 308 330 86 186 296 42 274 102 226 268 254 199 190 222 205 230 242 246 226 206 205 199 214 183 221 164 200 136 154 149 157 146
348 350 350 350 352 351 349 351 351 351 333 347 3 44 346 312 32 297 298 137 124 257 108 118 242 77 43 36 90 25 91 103 207 108 44 45 37 53 71 76 99 83 70 64 51 30 35 46 23 14 358 319 153 103 30 331 349 36 68 261 259 280 227 201 211 245 211 118 235 282 246 235 230 225 206 195 208 354 97 73 60 356 103 170 194 188 140
348 351 349 351 353 354 353 352 355 357 351 21 354 15 5 355 341 287 274 273 140 299 271 69 19 67 123 171 130 102 97 71 25 322 124 123 69 20 24 18 37 65 57 45 16 354 1 6 317 209 233 282 159 175 147 161 32 358 338 207 164 260 266 246 207 251 181 137 172 240 233 226 198 52 80 108 193 186 204 186 191 138 301 56 64 105 124
348 349 349 351 353 356 355 355 355 359 1 339 316 355 16 341 302 276 285 275 95 282 341 46 47 143 114 85 123 131 118 63 108 291 108 77 86 55 33 75 289 114 81 2 307 95 178 181 169 219 16 56 15 63 341 43 74 207 204 312 100 199 236 257 200 246 198 152 181 221 221 210 82 102 84 88 62 4 309 57 80 113 121 139 116 114 124
347 349 349 352 353 355 357 355 356 356 359 344 329 14 358 352 302 313 314 299 96 335 102 106 101 90 101 113 91 89 95 123 64 70 94 113 112 67 17 38 55 90 260 90 310 279 236 82 36 315 104 351 317 351 259 123 179 306 8 356 309 253 218 221 226 253 187 179 196 215 180 91 120 95 92 69 70 98 173 169 164 161 152 163 132 133 117
346 350 350 351 352 354 355 356 356 356 356 351 337 4 352 352 342 327 342 317 88 45 70 120 150 124 121 82 89 116 126 94 79 93 124 134 134 101 105 45 65 79 175 125 240 285 218 189 203 201 180 211 202 221 152 290 287 299 344 297 276 316 309 259 226 205 240 212 209 183 114 165 140 168 148 194 133 178 226 241 182 176 176 186 163 150 142
343 350 351 351 352 353 353 354 357 357 356 347 309 346 6 358 343 333 328 301 22 93 259 329 113 126 147 142 192 165 166 112 190 130 78 326 122 85 79 108 148 36 59 259 211 188 284 283 237 227 188 225 222 179 157 218 170 201 263 234 277 284 286 354 289 188 242 256 240 185 181 230 170 110 97 86 78 32 31 294 146 161 153 201 150 170 172
342 349 351 351 350 352 353 353 355 358 2 346 320 4 31 0 324 301 307 316 324 217 98 49 57 133 167 156 227 283 318 188 147 140 162 174 182 124 180 129 125 307 259 257 307 291 253 238 235 281 270 286 61 220 207 163 192 152 179 218 259 276 247 272 265 245 207 228 248 236 233 108 99 112 111 97 56 89 44 264 223 160 148 156 156 162 183
340 352 351 352 350 349 352 353 353 356 2 3 341 338 30 4 350 338 324 316 279 40 95 110 169 170 231 156 189 208 223 298 175 232 190 167 183 197 131 215 159 231 253 277 187 244 210 205 267 271 251 102 242 340 332 271 254 184 160 198 235 229 223 225 227 250 243 249 229 234 233 146 135 118 133 108 124 118 240 233 196 129 133 117 320 188 156
333 351 353 352 351 348 350 351 352 354 358 355 335 330 14 15 349 327 298 303 310 89 98 116 209 203 257 3 14 44 296 254 241 182 272 99 161 187 161 179 208 163 295 251 257 242 263 264 235 228 268 72 114 86 270 10 251 242 207 215 200 203 230 225 246 244 204 211 250 256 116 99 127 128 113 106 77 256 222 233 99 302 117 103 199 292 155
328 349 357 352 350 349 346 347 349 352 355 357 332 273 86 7 353 336 316 293 302 358 103 63 340 301 356 255 329 357 346 351 332 272 169 189 154 119 244 156 314 220 179 245 261 274 278 237 248 275 273 136 168 252 40 213 254 292 11 222 226 243 242 234 247 247 254 233 246 242 82 80 111 117 110 87 214 206 229 79 117 92 73 62 187 233 103
317 350 355 352 348 348 348 344 347 349 350 355 340 325 6 16 4 355 345 340 328 305 124 128 200 256 197 260 222 214 178 207 241 301 300 336 128 203 182 206 173 280 193 243 241 270 272 283 347 112 250 232 171 92 219 235 259 269 252 253 276 247 233 234 223 241 249 245 252 252 246 151 176 122 135 145 246 80 110 137 116 143 127 175 157 214 173
307 341 354 349 349 346 348 344 344 345 346 350 339 312 298 114 356 1 337 325 312 293 131 59 270 272 285 242 260 298 306 316 344 264 311 13 78 240 245 340 119 196 235 227 280 280 284 266 183 211 274 299 121 216 290 320 219 224 247 247 253 5 273 245 244 226 249 222 231 245 36 117 149 167 300 162 232 69 32 119 170 147 128 154 211 196 228
305 353 352 351 343 342 344 343 345 345 345 343 328 284 292 83 5 10 319 300 284 283 335 360 330 299 266 275 291 297 298 293 339 338 306 296 170 260 10 206 247 276 4 302 266 221 214 248 277 260 222 221 153 245 174 234 247 159 188 235 247 189 241 344 310 10 273 291 26 79 167 135 133 27 68 349 53 81 105 229 312 313 241 239 259 291 294
295 351 352 349 340 334 340 336 346 342 342 344 328 291 322 344 354 351 299 283 248 251 265 255 222 241 247 255 261 273 261 276 292 282 276 290 263 193 247 249 236 265 233 255 287 316 323 330 286 318 278 259 264 245 211 243 282 141 212 189 263 57 296 9 269 257 278 285 277 97 164 147 185 162 174 339 172 214 175 223 246 205 287 307 290 290 252
285 325 352 347 331 336 331 332 340 344 338 340 325 321 327 351 330 317 285 252 276 303 231 213 244 211 207 180 177 188 226 225 242 263 303 287 278 248 198 258 348 232 242 264 354 302 325 309 302 321 272 285 258 245 245 225 233 229 242 209 209 223 189 217 231 247 296 265 184 218 223 216 215 244 179 173 204 209 199 212 208 254 232 224 213 246 285
273 304 353 342 332 329 331 323 331 338 342 335 311 254 258 256 5 333 316 322 314 312 306 173 173 60 72 69 186 232 216 256 196 218 225 217 248 275 329 51 343 330 346 342 131 256 245 261 257 244 262 249 241 257 252 279 253 235 247 247 228 210 186 228 230 249 239 251 150 184 249 283 299 252 217 199 196 211 225 215 220 212 208 231 218 199 228
271 318 344 330 337 325 327 320 317 330 334 343 308 323 320 340 358 306 279 268 266 270 272 274 120 191 126 230 214 94 79 210 232 216 225 233 230 245 271 237 228 212 276 255 243 263 267 252 264 268 258 252 213 268 259 275 305 89 258 270 331 37 131 229 214 242 240 247 261 270 255 226 223 236 248 267 269 236 209 211 212 207 210 204 213 232 263
260 292 354 333 325 328 308 313 309 306 322 311 293 280 291 312 312 303 322 336 312 230 227 260 72 171 186 239 76 276 226 249 225 230 218 222 235 232 236 252 257 237 243 251 242 255 248 255 258 258 236 249 236 267 283 266 263 258 247 241 184 195 225 231 237 238 238 243 261 245 243 242 224 228 234 239 238 241 252 219 220 221 213 211 232 225 207
238 251 355 343 322 314 306 300 301 305 280 268 261 271 248 278 330 333 311 300 288 316 327 307 278 350 4 275 84 225 150 202 216 209 215 211 217 231 241 241 236 248 238 246 249 231 239 248 244 243 269 268 242 238 241 252 278 256 249 254 238 232 241 249 245 248 251 301 324 1 313 296 286 305 301 209 221 240 228 229 231 230 231 237 238 245 242
229 251 233 329 319 293 297 294 288 294 307 293 273 255 221 222 314 351 285 300 284 293 298 287 274 247 260 107 188 214 166 217 206 213 209 210 211 215 233 240 250 243 243 247 257 263 257 256 268 268 262 86 45 337 307 252 245 254 263 275 273 347 347 293 282 296 300 298 294 305 290 278 290 295 296 291 238 227 234 235 231 228 240 239 237 246 267
228 243 1 288 274 300 276 289 291 286 303 279 253 243 240 148 124 297 15 310 297 306 285 316 310 60 107 215 209 192 188 177 208 217 225 234 214 219 219 222 231 240 257 258 258 251 252 250 236 22 27 185 237 175 232 265 258 262 216 16 325 353 31 25 348 318 295 312 303 290 284 273 269 268 261 257 267 249 241 241 236 234 235 242 249 243 235
221 141 250 252 252 255 271 279 300 307 283 264 268 258 253 218 103 128 149 243 263 293 304 286 271 320 263 100 342 201 214 131 243 227 205 227 263 235 223 226 235 236 243 233 236 275 339 282 277 165 169 166 192 254 265 258 260 256 268 294 313 261 265 253 253 270 281 281 281 276 267 262 267 267 256 251 252 248 231 231 241 237 233 232 234 229 242
209 219 182 235 233 236 257 268 303 287 274 282 306 326 17 17 30 32 340 272 289 263 284 290 263 224 219 162 192 156 246 180 216 175 179 269 219 208 253 229 260 222 251 279 54 329 241 255 264 260 223 139 186 251 248 246 257 270 280 238 216 243 268 280 267 260 254 256 264 267 261 256 246 247 257 253 246 243 234 229 232 235 169 209 289 295 286
152 185 219 215 232 227 239 265 260 276 306 331 322 248 35 20 346 300 208 243 234 263 282 266 274 308 262 64 259 184 169 224 212 241 182 179 243 225 243 213 251 259 96 267 233 252 216 242 247 249 129 150 223 249 244 249 258 280 306 317 321 274 267 248 250 261 268 262 249 253 262 261 246 241 285 307 287 254 238 231 230 218 190 192 210 235 251
166 150 204 218 195 237 256 271 278 278 270 265 216 152 132 181 205 239 298 263 277 276 258 263 270 251 228 135 226 153 293 279 269 187 257 170 236 235 245 225 209 249 190 224 218 277 258 245 257 179 113 212 228 248 252 253 294 310 293 284 273 271 261 258 246 244 243 246 250 256 260 261 264 266 266 292 284 256 238 229 228 223 204 209 214 224 233
149 178 180 205 238 249 257 258 256 232 250 228 96 82 112 182 315 290 234 282 259 213 220 228 266 275 260 225 120 36 290 268 235 145 252 151 183 265 238 255 182 241 161 231 248 247 252 229 345 281 257 191 216 227 241 246 219 220 234 256 277 301 297 282 273 274 280 310 315 287 254 242 244 249 230 215 226 235 231 217 217 219 216 216 225 238 249
170 197 229 234 247 244 232 204 238 250 202 47 51 92 117 178 212 220 265 282 286 309 269 259 248 276 311 291 82 221 217 250 226 237 239 304 213 183 277 280 266 256 87 212 257 255 262 124 201 236 49 145 222 235 237 269 294 291 291 314 325 305 296 296 297 294 291 284 228 223 260 252 241 243 237 229 227 240 243 229 225 225 221 227 229 245 255
177 210 251 259 226 214 209 110 95 31 30 55 87 128 167 199 171 226 222 242 222 233 280 307 268 265 286 314 41 297 297 307 146 260 194 213 308 111 230 247 291 105 228 236 257 255 172 159 256 259 231 255 282 68 58 16 338 324 318 317 308 300 293 294 300 303 293 277 271 259 244 242 236 237 227 234 227 215 223 219 219 207 221 225 233 242 253
171 250 228 216 203 226 160 133 60 105 98 97 145 174 181 218 219 184 212 230 190 212 235 243 262 266 228 263 304 171 191 305 299 314 300 16 288 251 352 261 279 287 282 291 59 104 30 253 232 261 269 55 119 151 178 159 285 326 317 317 312 307 303 294 297 290 291 287 275 251 240 230 232 211 215 207 200 178 170 148 6 284 258 250 263 308 316
215 200 221 236 253 356 40 88 97 128 272 175 219 266 216 231 249 225 207 176 175 231 208 231 250 266 276 277 193 170 327 316 299 325 310 115 266 309 261 294 120 258 270 278 197 165 250 246 261 250 262 143 138 71 312 38 257 38 329 335 322 315 318 300 287 292 297 299 301 286 261 240 217 206 191 157 149 142 107 100 85 74 44 358 335 321 285
212 217 225 212 283 71 90 86 124 197 225 239 206 241 254 200 244 234 137 233 225 211 171 244 236 267 306 302 316 336 352 312 319 330 328 318 87 297 25 284 11 308 285 284 359 131 271 259 170 212 230 165 135 115 97 32 11 18 6 28 352 326 320 301 281 274 284 281 277 255 244 233 234 203 173 151 151 145 128 119 124 147 209 223 292 278 273
208 254 243 68 85 121 112 153 175 228 239 239 222 218 259 246 214 270 237 261 271 255 129 303 263 223 197 225 250 300 135 246 293 307 296 295 39 287 269 292 25 289 283 294 95 272 183 253 264 287 31 54 79 82 54 56 14 358 358 12 13 317 317 320 285 239 233 219 189 197 171 169 161 164 161 160 148 145 150 166 172 198 203 210 227 258 282
21 336 42 63 93 100 166 182 222 239 233 268 288 271 242 252 189 220 251 288 73 109 193 124 316 296 7 248 299 300 21 12 312 295 306 294 98 298 307 289 186 281 295 0 332 267 279 299 296 353 147 129 105 67 65 29 26 350 346 345 343 345 321 309 318 306 266 198 174 164 187 160 170 165 172 169 174 171 174 173 180 174 193 226 249 289 312
265 285 266 162 163 186 201 237 188 245 261 306 356 305 255 238 210 275 221 211 160 279 141 195 35 293 328 16 316 351 9 157 285 243 253 291 102 242 286 276 263 265 288 301 282 294 295 292 329 55 147 92 27 50 341 345 330 319 315 327 328 320 324 342 327 341 317 277 158 167 194 179 177 176 180 176 184 183 179 167 165 165 184 241 303 322 353
145 186 211 188 215 152 231 263 222 178 281 243 189 224 218 200 161 241 260 322 322 255 331 273 174 242 4 147 288 201 187 175 219 276 238 217 268 266 255 265 242 254 289 275 285 285 292 50 76 157 111 107 21 5 354 326 307 303 297 298 303 289 302 309 299 284 252 237 184 186 204 207 185 184 181 181 168 162 164 161 154 149 106 330 150 26 35
207 197 239 206 250 158 83 319 237 203 242 214 230 317 302 18 195 242 297 76 240 55 174 253 302 312 315 165 237 174 53 325 116 271 291 283 266 269 269 309 342 317 293 291 286 293 315 338 107 90 87 345 345 334 324 317 312 308 307 302 293 290 282 277 279 273 241 245 203 127 246 237 171 169 166 158 150 155 154 153 143 139 123 108 49 11 42
217 197 187 177 249 256 217 232 190 247 249 259 239 245 324 117 217 236 165 245 275 230 262 16 311 323 298 354 313 332 275 275 282 251 301 280 281 294 16 292 284 291 294 292 313 318 324 335 61 54 350 333 322 321 311 308 302 300 295 292 295 291 281 270 262 255 254 225 201 167 179 181 176 169 170 158 151 153 150 146 135 127 130 130 93 51 48
280 305 271 280 269 224 210 240 218 235 304 235 255 320 324 339 345 301 6 116 253 317 323 308 281 334 312 318 293 250 243 217 274 279 274 286 306 302 276 304 306 297 308 327 316 319 332 9 2 353 345 334 328 326 321 316 317 307 299 294 289 284 281 268 256 246 232 219 220 197 168 181 184 176 165 151 141 140 138 133 125 134 131 123 115 109 84
239 284 289 245 236 212 219 234 263 249 188 296 339 339 6 314 268 315 287 139 320 332 306 314 308 98 271 149 247 293 324 65 302 319 348 310 302 295 299 275 281 295 316 310 325 350 341 347 345 345 334 329 326 320 315 309 300 298 294 288 282 279 275 264 254 242 225 213 208 204 170 176 175 174 165 153 144 143 135 126 132 134 128 125 125 118 87
327 305 232 243 261 274 269 310 294 282 267 214 295 298 262 241 237 191 131 85 256 284 6 338 342 310 309 327 308 329 310 63 290 338 305 277 299 304 316 314 332 322 320 351 346 352 342 338 332 328 322 318 316 311 309 306 306 304 297 289 285 278 266 259 246 243 238 217 198 196 184 178 172 160 157 152 152 146 138 138 143 135 132 128 123 124 121
234 238 246 248 262 245 263 292 265 259 218 208 163 251 271 251 211 88 90 237 154 281 252 202 163 288 315 326 333 331 312 314 347 301 277 298 312 328 331 313 308 307 333 2 349 338 334 329 326 324 324 318 314 310 306 305 305 302 292 285 283 283 272 252 239 235 249 220 192 195 176 168 164 156 155 158 154 148 147 146 139 136 133 136 139 134 127
239 259 255 252 266 308 5 289 303 304 306 44 135 37 338 310 304 144 130 319 7 278 250 303 285 312 1 348 291 287 343 9 286 295 320 312 8 327 317 315 331 347 341 340 338 336 331 328 329 326 320 317 320 318 314 309 307 301 293 294 289 265 260 260 246 218 211 210 184 165 159 143 136 138 151 163 163 156 149 148 148 148 146 146 145 143 121
224 234 245 222 225 246 264 290 265 269 308 327 100 179 222 132 206 81 82 260 240 299 314 321 308 299 277 300 352 330 299 269 292 302 294 326 331 332 348 346 347 347 340 339 340 334 330 329 331 327 325 320 319 313 315 319 314 303 303 292 269 244 246 250 235 196 245 222 171 161 152 147 133 130 171 172 167 161 156 159 162 160 161 160 157 157 129